Regional Weather Roundup
Issued by NWS

Home | Current Version | Previous Version | Text Only | Print | Product List | Glossary Off
Versions: 1 2 3 4 5 6 7 8 9 10 11 12 13 14 15 16 17 18 19 20 21 22 23 24 25 26 27 28 29 30 31 32 33 34 35 36 37 38 39 40 41 42 43 44 45 46 47 48 49 50

000
ASUS43 KLMK 231502
RWRKY
KENTUCKY REGIONAL WEATHER ROUNDUP
NATIONAL WEATHER SERVICE LOUISVILLE KY
1100 AM EDT WED APR 23 2014

NOTE "FAIR" INDICATES FEW OR NO CLOUDS BELOW 12,000 FEET
WITH NO SIGNIFICANT WEATHER AND/OR OBSTRUCTIONS TO VISIBILITY.

KYZ001>023-026-027-061>063-070>075-231600-
WESTERN AND SOUTH CENTRAL KENTUCKY

CITY           SKY/WX    TMP DP  RH WIND       PRES   REMARKS
PADUCAH        SUNNY     60  38  43 E12       30.11R
HENDERSON      SUNNY     54  34  47 NE9       30.15R
OWENSBORO      SUNNY     53  32  45 E9        30.14R
HOPKINSVILLE   SUNNY     57  36  45 NE10      30.12R
BOWLING GREEN  SUNNY     56  33  42 E8        30.11S
GLASGOW        NOT AVBL
$$

KYZ024-025-028>034-038-045-046-053-231600-
NORTH CENTRAL KENTUCKY

CITY           SKY/WX    TMP DP  RH WIND       PRES   REMARKS
LOUISVILLE/SDF SUNNY     51  30  44 N9G17     30.12S
LOUISVILLE/LOU SUNNY     52  30  43 NE9       30.12S
FORT KNOX      NOT AVBL
$$

KYZ035>037-039>044-047>052-055>060-089>105-231600-
NORTHEAST KENTUCKY

CITY           SKY/WX    TMP DP  RH WIND       PRES   REMARKS
LEXINGTON      SUNNY     50  33  52 VRB3      30.10R
COVINGTON      SUNNY     48  31  51 VRB5      30.10R
FRANKFORT      SUNNY     49  31  49 N8        30.09S
$$

KYZ054-064>069-076>088-106>120-231600-
SOUTHEAST KENTUCKY

CITY           SKY/WX    TMP DP  RH WIND       PRES   REMARKS
JACKSON        SUNNY     49  27  42 VRB3G17   30.06S
LONDON         SUNNY     53  29  39 VRB6      30.07S
SOMERSET       NOT AVBL
MIDDLESBORO    NOT AVBL
MONTICELLO     SUNNY     55  34  45 NE8       30.11R
$$




USA.gov is the U.S. government's official web portal to all federal, state and local government web resources and services.